Melfa, VA

6:28 AM EST on February 20, 2017 (GMT -0500)
Accomack County

Weather History for KMFV - March, 2014

Change the Weather History Date:

Wednesday, March 12, 2014

  Actual Average (KWAL) Record (KWAL)
Temperature  
Mean Temperature 60 °F -  
Max Temperature 71 °F 49 °F 82 °F (1990)
Min Temperature 46 °F 34 °F 22 °F (1993)
Degree Days  
Heating Degree Days 6    
Growing Degree Days 10 (Base 50)    
Moisture  
Dew Point 49 °F    
Average Humidity 64    
Maximum Humidity 77    
Minimum Humidity 50    
Precipitation  
Precipitation 0.05 in - - ()
Sea Level Pressure  
Sea Level Pressure 29.41 in    
Wind  
Wind Speed 9 mph (SSW)    
Max Wind Speed 32 mph    
Max Gust Speed 47 mph    
Visibility 10 miles    
Events Rain    
Averages and records for this station are not official NWS values.
T = Trace of Precipitation, MM = Missing Value Source: NWS Daily Summary

Daily Weather History Graph

Daily Weather History Graph

Search for Another Location

Airport or City:

Trip Planner

Search our weather history database for the weather conditions in past years. The results will help you decide how hot, cold, wet, or windy it might be!

Date:

Astronomy

Mar. 12, 2014 Rise Set
Actual Time 7:18 AM EDT 7:07 PM EDT
Civil Twilight 6:52 AM EDT 7:33 PM EDT
Nautical Twilight 6:22 AM EDT 8:03 PM EDT
Astronomical Twilight 5:51 AM EDT 8:34 PM EDT
Moon 3:39 PM EDT (3/12) 4:45 AM EDT (3/12)
Length of Visible Light 12h 41m
Length of Day
11h 48m
Waxing Gibbous, 85% of the Moon is Illuminated
Mar 12
Waxing Gibbous
Mar 16
Full
Mar 23
Last Quarter
Mar 30
New
Apr 7
First Quarter

Hourly Weather History & Observations

Time (EDT) Temp. Windchill Dew Point Humidity Pressure Visibility Wind Dir Wind Speed Gust Speed Precip Events Conditions
12:16 AM 53.6 °F - 42.8 °F 67% 29.67 in 10.0 mi South 5.8 mph - N/A   Clear
12:36 AM 53.6 °F - 44.6 °F 72% 29.67 in 10.0 mi SSE 4.6 mph - N/A   Clear
12:57 AM 53.6 °F - 44.6 °F 72% 29.67 in 10.0 mi South 4.6 mph - N/A   Clear
1:16 AM 53.6 °F - 44.6 °F 72% 29.67 in 10.0 mi South 5.8 mph - N/A   Clear
1:36 AM 55.4 °F - 44.6 °F 67% 29.67 in 10.0 mi South 8.1 mph - N/A   Clear
1:56 AM 57.2 °F - 44.6 °F 63% 29.65 in 10.0 mi South 8.1 mph - N/A   Clear
2:16 AM 57.2 °F - 44.6 °F 63% 29.64 in 10.0 mi South 8.1 mph - N/A   Clear
2:36 AM 57.2 °F - 44.6 °F 63% 29.64 in 10.0 mi South 8.1 mph - N/A   Clear
2:56 AM 57.2 °F - 44.6 °F 63% 29.62 in 10.0 mi South 6.9 mph - N/A   Clear
3:16 AM 57.2 °F - 44.6 °F 63% 29.61 in 10.0 mi South 6.9 mph - N/A   Clear
3:36 AM 57.2 °F - 44.6 °F 63% 29.60 in 10.0 mi South 6.9 mph - N/A   Clear
3:56 AM 57.2 °F - 46.4 °F 67% 29.58 in 10.0 mi South 5.8 mph - N/A   Clear
4:16 AM 57.2 °F - 46.4 °F 67% 29.58 in 10.0 mi South 6.9 mph - N/A   Clear
4:36 AM 57.2 °F - 46.4 °F 67% 29.57 in 10.0 mi South 5.8 mph - N/A   Clear
4:56 AM 57.2 °F - 46.4 °F 67% 29.57 in 10.0 mi South 9.2 mph - N/A   Clear
5:16 AM 57.2 °F - 46.4 °F 67% 29.55 in 10.0 mi South 6.9 mph - N/A   Clear
5:36 AM 57.2 °F - 46.4 °F 67% 29.55 in 10.0 mi South 6.9 mph - N/A   Clear
5:56 AM 57.2 °F - 46.4 °F 67% 29.55 in 10.0 mi South 6.9 mph - N/A   Clear
6:16 AM 55.4 °F - 46.4 °F 72% 29.55 in 10.0 mi South 8.1 mph - N/A   Clear
6:36 AM 55.4 °F - 46.4 °F 72% 29.55 in 10.0 mi South 5.8 mph - N/A   Clear
6:56 AM 55.4 °F - 46.4 °F 72% 29.54 in 10.0 mi South 6.9 mph - N/A   Clear
7:16 AM 55.4 °F - 46.4 °F 72% 29.55 in 10.0 mi South 8.1 mph - N/A   Clear
7:36 AM 55.4 °F - 46.4 °F 72% 29.55 in 10.0 mi SSW 6.9 mph - N/A   Clear
7:56 AM 57.2 °F - 46.4 °F 67% 29.54 in 10.0 mi South 9.2 mph - N/A   Clear
8:16 AM 57.2 °F - 46.4 °F 67% 29.52 in 10.0 mi South 8.1 mph - N/A   Clear
8:36 AM 60.8 °F - 46.4 °F 59% 29.52 in 10.0 mi South 8.1 mph - N/A   Clear
8:56 AM 60.8 °F - 46.4 °F 59% 29.51 in 10.0 mi South 8.1 mph - N/A   Clear
9:16 AM 60.8 °F - 46.4 °F 59% 29.51 in 10.0 mi South 8.1 mph - N/A   Clear
9:36 AM 60.8 °F - 48.2 °F 63% 29.50 in 10.0 mi South 6.9 mph - N/A   Clear
9:56 AM 62.6 °F - 48.2 °F 59% 29.49 in 10.0 mi South 8.1 mph - N/A   Clear
10:16 AM 62.6 °F - 48.2 °F 59% 29.48 in 10.0 mi SSW 5.8 mph - N/A   Clear
10:36 AM 64.4 °F - 50.0 °F 59% 29.47 in 10.0 mi South 5.8 mph - N/A   Clear
10:56 AM 66.2 °F - 51.8 °F 60% 29.46 in 10.0 mi SSW 9.2 mph - N/A   Clear
11:16 AM 69.8 °F - 51.8 °F 53% 29.45 in 10.0 mi SW 12.7 mph 20.7 mph N/A   Clear
11:36 AM 69.8 °F - 51.8 °F 53% 29.44 in 10.0 mi SW 17.3 mph 28.8 mph N/A   Clear
11:57 AM 69.8 °F - 51.8 °F 53% 29.42 in 10.0 mi SW 13.8 mph 20.7 mph N/A   Clear
12:16 PM 71.6 °F - 51.8 °F 50% 29.41 in 10.0 mi SW 12.7 mph 18.4 mph N/A   Clear
12:36 PM 71.6 °F - 51.8 °F 50% 29.41 in 10.0 mi SSW 12.7 mph 25.3 mph N/A   Clear
12:57 PM 71.6 °F - 51.8 °F 50% 29.38 in 10.0 mi SSW 16.1 mph 20.7 mph N/A   Clear
1:16 PM 71.6 °F - 51.8 °F 50% 29.37 in 10.0 mi SSW 17.3 mph 23.0 mph N/A   Clear
1:36 PM 71.6 °F - 51.8 °F 50% 29.35 in 10.0 mi SW 12.7 mph 18.4 mph N/A   Light Drizzle
1:56 PM 71.6 °F - 51.8 °F 50% 29.33 in 10.0 mi SSW 15.0 mph 21.9 mph N/A   Clear
2:16 PM 71.6 °F - 51.8 °F 50% 29.32 in 10.0 mi SSW 12.7 mph 23.0 mph N/A   Scattered Clouds
2:36 PM 69.8 °F - 53.6 °F 56% 29.31 in 10.0 mi SSW 15.0 mph 21.9 mph N/A Rain Light Rain
2:56 PM 69.8 °F - 53.6 °F 56% 29.29 in 7.0 mi SSW 13.8 mph 19.6 mph N/A Rain Rain
3:16 PM 64.4 °F - 57.2 °F 77% 29.26 in 10.0 mi South 4.6 mph - 0.02 in Rain Rain
3:36 PM 64.4 °F - 57.2 °F 77% 29.24 in 10.0 mi SSE 6.9 mph - 0.02 in   Clear
3:56 PM 64.4 °F - 53.6 °F 68% 29.23 in 10.0 mi South 6.9 mph - N/A   Clear
4:16 PM 64.4 °F - 53.6 °F 68% 29.21 in 10.0 mi South 4.6 mph - N/A   Clear
4:36 PM 64.4 °F - 53.6 °F 68% 29.20 in 10.0 mi South 8.1 mph - N/A   Clear
4:56 PM 64.4 °F - 53.6 °F 68% 29.19 in 10.0 mi South 8.1 mph - N/A   Clear
5:16 PM 64.4 °F - 53.6 °F 68% 29.18 in 10.0 mi South 8.1 mph - N/A   Clear
5:36 PM 66.2 °F - 55.4 °F 68% 29.17 in 10.0 mi South 9.2 mph - N/A   Clear
5:56 PM 68.0 °F - 55.4 °F 64% 29.17 in 10.0 mi SSW 15.0 mph 24.2 mph N/A   Clear
6:16 PM 69.8 °F - 55.4 °F 60% 29.16 in 10.0 mi SW 16.1 mph 28.8 mph N/A   Clear
6:36 PM 69.8 °F - 57.2 °F 64% 29.16 in 10.0 mi SSW 12.7 mph 26.5 mph N/A   Clear
6:56 PM 69.8 °F - 57.2 °F 64% 29.14 in 10.0 mi SSW 15.0 mph 25.3 mph N/A   Clear
7:17 PM 69.8 °F - 57.2 °F 64% 29.15 in 10.0 mi SW 15.0 mph 26.5 mph N/A   Clear
7:36 PM 68.0 °F - 57.2 °F 68% 29.17 in 10.0 mi SW 16.1 mph 21.9 mph N/A   Clear
7:56 PM 68.0 °F - 57.2 °F 68% 29.17 in 10.0 mi SW 17.3 mph 26.5 mph N/A   Clear
8:16 PM 68.0 °F - 57.2 °F 68% 29.17 in 10.0 mi SW 16.1 mph 23.0 mph N/A   Scattered Clouds
8:36 PM 66.2 °F - 57.2 °F 73% 29.17 in 10.0 mi SW 21.9 mph 31.1 mph 0.01 in Rain Light Rain
8:56 PM 66.2 °F - 57.2 °F 73% 29.19 in 10.0 mi WSW 16.1 mph 27.6 mph N/A Rain Rain
9:16 PM 62.6 °F - 55.4 °F 77% 29.19 in 10.0 mi SW 16.1 mph 21.9 mph 0.01 in Rain Light Rain
9:36 PM 62.6 °F - 55.4 °F 77% 29.22 in 10.0 mi WSW 12.7 mph 18.4 mph 0.02 in Rain Light Rain
9:56 PM 62.6 °F - 55.4 °F 77% 29.23 in 10.0 mi West 15.0 mph 23.0 mph N/A Rain Light Rain
10:16 PM 60.8 °F - 48.2 °F 63% 29.26 in 10.0 mi NW 18.4 mph 29.9 mph N/A   Light Drizzle
10:36 PM 55.4 °F - 39.2 °F 54% 29.30 in 10.0 mi NW 32.2 mph 38.0 mph N/A   Mostly Cloudy
10:56 PM 53.6 °F - 35.6 °F 51% 29.31 in 10.0 mi NW 29.9 mph 47.2 mph N/A   Scattered Clouds
11:16 PM 51.8 °F - 35.6 °F 54% 29.33 in 10.0 mi NW 24.2 mph 42.6 mph N/A   Scattered Clouds
11:36 PM 48.2 °F - 32.0 °F 54% 29.37 in 10.0 mi NW 32.2 mph 47.2 mph N/A   Clear
11:56 PM 46.4 °F 36.9 °F 28.4 °F 50% 29.39 in 10.0 mi NW 32.2 mph 43.7 mph N/A   Clear